#timestamp,LO_Frequency,Hit,StdDev 
1580124835.3,286046993.7,P
1580124855.1,286046996.1,N
1580124875.9,286046996.0,P
1580124895.7,286046996.4,Y
1580124915.5,286046999.0,P
1580124935.4,286046999.3,N
1580124955.2,286046998.9,N
1580124975.0,286046998.3,N
1580124976.0,286046998.3,N
1580124995.8,286046998.9,N
1580125015.6,286046999.4,N
1580125035.5,286046999.4,N
1580125055.3,286046999.4,N
1580125075.1,286046999.1,N
1580125095.9,286046996.5,Y
1580125115.7,286046998.8,P
1580125135.6,286046998.3,P
1580125155.4,286046998.8,P
1580125175.2,286046996.6,Y
1580125195.1,286046999.0,P
1580125196.0,286046999.0,P
1580125215.8,286046998.5,P
1580125235.7,286046999.5,N
1580125255.5,286046998.8,Y
1580125275.3,286046998.9,P
1580125295.2,286046998.1,P
1580125315.0,286046998.6,P
1580125315.9,286046998.6,Y
1580125335.7,286047000.3,P
1580125355.6,286047000.4,N
1580125375.4,286047000.8,N
1580125395.3,286047000.0,N
1580125415.1,286047000.1,N
1580125416.0,286047000.1,N
1580125435.8,286046999.7,N
1580125455.7,286047001.5,N
1580125475.5,286047001.8,N
1580125495.3,286047001.8,N
1580125515.2,286047002.5,N
1580125535.0,286046999.8,N
1580125535.9,286046999.8,N
1580125555.8,286047002.4,N
1580125575.6,286046999.9,N
1580125595.4,286047000.3,N
1580125615.3,286047000.4,N
1580125635.1,286047001.2,N
1580125655.8,286047000.0,N
1580125675.7,286046999.8,N
1580125695.5,286047001.9,N
1580125715.4,286047001.5,N
1580125735.2,286047002.3,N
1580125755.0,286047003.8,Y
1580125755.9,286047003.8,P
1580125775.8,286047004.2,N
1580125795.6,286047004.3,N
1580125815.4,286047002.4,N
1580125835.3,286047000.8,N
1580125855.1,286046999.3,N
1580125875.9,286046998.7,N
1580125895.7,286046999.5,N
1580125915.5,286046999.6,N
1580125935.4,286046998.6,N
1580125955.2,286046998.5,N
1580125975.0,286047000.2,N
1580125975.9,286047000.2,N
1580125995.8,286047000.6,N
1580126015.6,286047000.4,N
1580126035.5,286047001.0,N
1580126055.3,286047001.2,N
1580126075.1,286047001.0,N
1580126095.9,286047000.3,N
1580126115.7,286047000.4,N
1580126135.5,286046998.2,N
1580126155.4,286046998.7,N
1580126175.2,286046999.6,N
1580126195.1,286046996.8,N
1580126196.0,286046996.8,N
1580126215.8,286046997.9,N
1580126235.6,286046996.8,N
1580126255.5,286046995.4,N
1580126275.3,286046995.3,N
1580126295.1,286046997.4,N
1580126315.9,286046995.8,N
1580126335.7,286046993.3,Y
1580126355.6,286046995.4,P
1580126375.4,286046995.5,N
1580126395.2,286046996.1,N
